Flag for U.S.A. Weather past 2 weeks in Boston, Massachusetts, U.S.A.

Now
73 °F

Scattered clouds.


Feels Like: 77 °F
Forecast: 62 / 76 °F
Wind: 9 mph from East

Location: Logan International Airport

Current Time: Jul 30, 2014 at 4:49:24 PM

Latest Report: Jul 30, 2014 at 3:54 PM


Visibility: 10 mi

Pressure: 29.97 "Hg

Humidity: 57%

Dew point: 57 °F

Location of BostonLocation

Historic Weather in Boston — Graph

°F

Boston temperature yesterday

Maximum temperature yesterday: 77 °F (at 1:54 PM)
Minimum temperature yesterday: 65 °F (at 4:54 AM)
Average temperature yesterday: 70 °F

Past Weeks' High & Low Weather Summary

 TemperatureHumidityPressure
High91 °F (Jul 23, 2:54 PM)97% (Jul 16, 10:54 AM)30.27 "Hg (Jul 16, 10:54 AM)
Low61 °F (Jul 20, 3:54 AM)36% (Jul 26, 2:54 PM)29.44 "Hg (Jul 28, 5:54 PM)
Average71 °F73%29.94 "Hg
* Reported Jul 15 3:54 PM — Jul 30 3:54 PM, Boston, Weather by CustomWeather, © 2014

Note: Actual official high and low records may vary slightly from our data, if they occured in-between our weather recording intervals... More about our weather records

Advertising

Boston weather history for previous 24 hours

 ConditionsComfort  
Time TempWeatherWind HumidityBarometerVisibility
3:54 PM
Jul 30
73 °FScattered clouds.9 mph57%29.97 "Hg10 mi
2:54 PM72 °FBroken clouds.10 mph64%29.98 "Hg10 mi
1:54 PM76 °FScattered clouds.No wind40%29.97 "Hg10 mi
12:54 PM76 °FScattered clouds.9 mph36%29.99 "Hg10 mi
11:54 AM76 °FScattered clouds.9 mph36%29.99 "Hg10 mi
10:54 AM77 °FScattered clouds.8 mph44%29.99 "Hg10 mi
9:54 AM70 °FPassing clouds.5 mph66%29.99 "Hg10 mi
8:54 AM69 °FPartly sunny.3 mph68%30.00 "Hg10 mi
7:54 AM68 °FScattered clouds.3 mph68%30.00 "Hg10 mi
6:54 AM66 °FPartly sunny.No wind73%29.99 "Hg10 mi
5:54 AM64 °FPassing clouds.No wind75%29.97 "Hg10 mi
4:54 AM64 °FPassing clouds.5 mph75%29.96 "Hg10 mi
3:54 AM65 °FPassing clouds.6 mph70%29.95 "Hg10 mi
2:54 AM67 °FPassing clouds.3 mph68%29.95 "Hg10 mi
1:54 AM67 °FPassing clouds.5 mph66%29.95 "Hg10 mi
12:54 AM68 °FPassing clouds.6 mph61%29.95 "Hg10 mi
11:54 PM
Jul 29
69 °FPassing clouds.7 mph59%29.94 "Hg10 mi
10:54 PM70 °FPassing clouds.6 mph57%29.93 "Hg10 mi
9:54 PM72 °FPassing clouds.7 mph52%29.92 "Hg10 mi
8:54 PM67 °FPartly sunny.No wind76%29.91 "Hg10 mi
7:54 PM68 °FPartly sunny.5 mph73%29.90 "Hg10 mi
6:54 PM70 °FBroken clouds.9 mph68%29.89 "Hg10 mi
5:54 PM70 °FBroken clouds.7 mph68%29.86 "Hg10 mi
4:54 PM72 °FPartly sunny.7 mph64%29.85 "Hg10 mi
Weather by CustomWeather, © 2014

See weather overviewHow to use our weather pages